Location: Austin
(30.3000°N, 97.7500°W)
Time: 23:37:48
(UTC-05:00)

ACS3 Solar Sail - Pass Details

Date: 05 September 2024
Orbit: 974 x 1033 km, 97.4° (Epoch: 14 September)

Event Time Altitude Azimuth Distance (km) Brightness Sun altitude
Exits shadow 22:54:45 36° 265° (W) 1,575 3.1 -38.0°
Drops below altitude 10° 23:00:32 10° 329° (NNW) 2,840 4.9 -38.9°
Sets 23:03:18 0° 338° (NNW) 3,798 5.6 -39.4°
